Location: Limerick
(52.6800°N, 8.6400°W)
Time: 00:03:07
(UTC+01:00)

ISS - All Passes

Search period start: 25 September 2017 00:00
Search period end: 05 October 2017 00:00
Orbit: 401 x 407 km, 51.6° (Epoch: 25 September)

Date Brightness Start Highest point End Pass type
(mag) Time Alt. Az. Time Alt. Az. Time Alt. Az.
25 Sep - 00:21:01 10° W 00:24:18 74° S 00:27:36 10° E night (unlit)
25 Sep - 01:57:27 10° W 02:00:41 53° SSW 02:03:54 10° ESE night (unlit)
25 Sep - 03:34:21 10° W 03:36:41 18° SW 03:39:00 10° S night (unlit)
25 Sep - 21:52:58 10° SSW 21:55:48 27° SSE 21:58:39 10° E visible
25 Sep - 23:28:42 10° WSW 23:31:59 67° S 23:35:15 10° E night (unlit)
26 Sep - 01:05:06 10° W 01:08:22 66° S 01:11:39 10° ESE night (unlit)
26 Sep - 02:41:43 10° W 02:44:31 26° SSW 02:47:19 10° SSE night (unlit)
26 Sep - 21:01:15 10° SSW 21:03:38 19° SE 21:06:02 10° E visible
26 Sep - 22:36:26 10° WSW 22:39:39 55° SSE 22:42:53 10° E visible
27 Sep - 00:12:44 10° W 00:16:02 74° S 00:19:19 10° E night (unlit)
27 Sep - 01:49:14 10° W 01:52:18 36° SSW 01:55:21 10° SE night (unlit)
27 Sep - 20:10:04 10° SSE 20:11:30 12° SE 20:12:57 10° ESE visible
27 Sep - 21:44:14 10° SW 21:47:21 42° SSE 21:50:29 10° E visible
27 Sep - 23:20:23 10° W 23:23:40 75° S 23:26:57 10° E night (unlit)
28 Sep - 00:56:49 10° W 01:00:01 49° SSW 01:03:13 10° ESE night (unlit)
28 Sep - 02:33:54 10° WSW 02:35:57 16° SW 02:38:00 10° S night (unlit)
28 Sep - 20:52:09 10° SW 20:55:05 30° SSE 20:58:01 10° E visible
28 Sep - 22:28:01 10° WSW 22:31:17 70° S 22:34:35 10° E visible
29 Sep - 00:04:25 10° W 00:07:40 62° SSW 00:10:57 10° ESE night (unlit)
29 Sep - 01:41:07 10° W 01:43:46 23° SSW 01:46:27 10° SSE night (unlit)
29 Sep - 20:00:18 10° SSW 20:02:51 21° SSE 20:05:26 10° E visible
29 Sep - 21:35:41 10° WSW 21:38:55 59° SSE 21:42:10 10° E visible
29 Sep - 23:12:01 10° W 23:15:18 72° S 23:18:35 10° ESE visible
30 Sep - 00:48:32 10° W 00:51:32 32° SSW 00:54:32 10° SE night (unlit)
30 Sep - 19:08:49 10° S 19:10:40 14° SE 19:12:31 10° ESE daylight
30 Sep - 20:43:24 10° SW 20:46:35 46° SSE 20:49:44 10° E visible
30 Sep - 22:19:38 10° W 22:22:54 76° S 22:26:11 10° E visible
30 Sep - 23:56:04 10° W 23:59:14 44° SSW 00:02:23 10° SE night (unlit)
01 Oct - 01:33:23 10° WSW 01:35:07 14° SW 01:36:49 10° S night (unlit)
01 Oct - 19:51:14 10° SW 19:54:15 34° SSE 19:57:16 10° E visible
01 Oct - 21:27:13 10° W 21:30:29 73° S 21:33:46 10° E visible
01 Oct - 23:03:37 10° W 23:06:52 58° SSW 23:10:06 10° ESE visible
02 Oct - 00:40:25 10° W 00:42:55 20° SSW 00:45:25 10° SSE night (unlit)
02 Oct - 18:59:16 10° SSW 19:01:58 24° SSE 19:04:40 10° E daylight
02 Oct - 20:34:50 10° WSW 20:38:05 63° SSE 20:41:21 10° E visible
02 Oct - 22:11:11 10° W 22:14:28 69° S 22:17:44 10° ESE visible
02 Oct - 23:47:45 10° W 23:50:39 29° SSW 23:53:33 10° SE night (unlit)
03 Oct - 18:07:35 10° S 18:09:43 16° SE 18:11:52 10° ESE daylight
03 Oct - 19:42:30 10° WSW 19:45:41 51° SSE 19:48:53 10° E visible
03 Oct - 21:18:45 10° W 21:22:02 75° S 21:25:19 10° E visible
03 Oct - 22:55:13 10° W 22:58:20 40° SSW 23:01:26 10° SE visible
04 Oct - 00:32:55 10° WSW 00:34:09 12° SW 00:35:22 10° SSW night (unlit)
04 Oct - 17:16:48 10° SSE 17:17:32 11° SE 17:18:15 10° SE daylight
04 Oct - 18:50:15 10° SW 18:53:18 38° SSE 18:56:23 10° E daylight
04 Oct - 20:26:18 10° W 20:29:35 74° S 20:32:52 10° E visible
04 Oct - 22:02:44 10° W 22:05:57 53° SSW 22:09:09 10° ESE visible
04 Oct - 23:39:38 10° W 23:41:56 18° SW 23:44:14 10° S night (unlit)
